Terminal Aerodrome Forecast
Issued by NWS Brownsville, TX

Home | Current Version | Previous Version | Text Only | Print | Product List | Glossary On
Versions: 1 2 3 4 5 6 7 8 9 10 11 12 13 14 15 16 17 18 19 20 21 22 23 24 25
000
FTUS44 KBRO 310500
TAFBRO
TAF
KBRO 310533Z 3106/0106 13006KT P6SM BKN250
     FM310900 14005KT P6SM VCSH OVC100
      TEMPO 3109/3112 5SM -TSRA BKN040CB OVC100
     FM311200 13005KT P6SM SCT040 OVC250 PROB30 3115/3118 5SM -SHRA
      BKN040 OVC250
     FM311800 12010KT P6SM SCT040 OVC100 PROB30 3118/3124 5SM -SHRA
      BKN040 OVC100
     FM010300 13006KT P6SM OVC150=

USA.gov is the U.S. government's official web portal to all federal, state and local government web resources and services.